When you browse on this site, cookies collect data to enhance your experience and personalize the content and advertising you see.
Visit our Privacy Policy to learn more. By continuing to use the site, you agree to this use of cookies and data.

Stündliche Wetter Gori

Heute, 14 Juli, Dienstag

Zeit Temperatur Niederschläge Wind Luftdruck Luftfeuchtigkeit
00:00 +18°C° 0 mm 3 m/S 695 mmHg 93%
01:00 +18°C° 0 mm 3 m/S 695 mmHg 93%
02:00 +17°C° 0 mm 3 m/S 695 mmHg 94%
03:00 +17°C° 0 mm 3 m/S 696 mmHg 94%
04:00 +18°C° 0 mm 3 m/S 696 mmHg 92%
05:00 +18°C° 0 mm 3 m/S 696 mmHg 90%
06:00 +19°C° 0 mm 4 m/S 697 mmHg 87%
07:00 +21°C° 0 mm 4 m/S 697 mmHg 79%
08:00 +22°C° 0 mm 5 m/S 697 mmHg 71%
09:00 +25°C° 0 mm 5 m/S 698 mmHg 62%
10:00 +26°C° 0 mm 6 m/S 698 mmHg 58%
11:00 +28°C° 0 mm 6 m/S 698 mmHg 53%
12:00 +29°C° 0 mm 7 m/S 698 mmHg 48%
13:00 +29°C° 0 mm 7 m/S 698 mmHg 49%
14:00 +29°C° 0 mm 7 m/S 698 mmHg 49%
15:00 +29°C° 0 mm 7 m/S 698 mmHg 50%
16:00 +28°C° 0.1 mm 7 m/S 698 mmHg 55%
17:00 +26°C° 0.1 mm 6 m/S 698 mmHg 61%
18:00 +24°C° 0.1 mm 6 m/S 698 mmHg 67%
19:00 +22°C° 0.1 mm 5 m/S 698 mmHg 75%
20:00 +21°C° 0.1 mm 4 m/S 699 mmHg 83%
21:00 +19°C° 0.1 mm 4 m/S 699 mmHg 92%
22:00 +19°C° 0 mm 3 m/S 699 mmHg 92%
23:00 +18°C° 0 mm 3 m/S 699 mmHg 93%

Morgen, 15 Juli, Mittwoch

Zeit Temperatur Niederschläge Wind Luftdruck Luftfeuchtigkeit
00:00 +18°C° 0 mm 3 m/S 699 mmHg 93%
01:00 +18°C° 0 mm 3 m/S 699 mmHg 93%
02:00 +18°C° 0 mm 3 m/S 699 mmHg 93%
03:00 +18°C° 0 mm 3 m/S 700 mmHg 92%
04:00 +18°C° 0 mm 2 m/S 700 mmHg 90%
05:00 +18°C° 0 mm 2 m/S 700 mmHg 88%
06:00 +19°C° 0 mm 2 m/S 700 mmHg 85%
07:00 +21°C° 0 mm 3 m/S 700 mmHg 76%
08:00 +24°C° 0 mm 3 m/S 701 mmHg 66%
09:00 +26°C° 0 mm 3 m/S 701 mmHg 56%
10:00 +28°C° 0 mm 3 m/S 701 mmHg 51%
11:00 +30°C° 0 mm 3 m/S 701 mmHg 46%
12:00 +32°C° 0 mm 4 m/S 700 mmHg 40%
13:00 +32°C° 0.1 mm 4 m/S 700 mmHg 41%
14:00 +33°C° 0.1 mm 4 m/S 700 mmHg 41%
15:00 +33°C° 0.1 mm 5 m/S 700 mmHg 42%
16:00 +30°C° 0.3 mm 5 m/S 700 mmHg 49%
17:00 +29°C° 0.3 mm 5 m/S 700 mmHg 57%
18:00 +27°C° 0.3 mm 5 m/S 700 mmHg 65%
19:00 +25°C° 0.4 mm 4 m/S 700 mmHg 73%
20:00 +22°C° 0.4 mm 3 m/S 700 mmHg 82%
21:00 +20°C° 0.4 mm 3 m/S 700 mmHg 91%
22:00 +19°C° 0 mm 2 m/S 700 mmHg 92%
23:00 +19°C° 0 mm 2 m/S 700 mmHg 93%

übermorgen, 16 Juli, Donnerstag

Zeit Temperatur Niederschläge Wind Luftdruck Luftfeuchtigkeit
00:00 +19°C° 0 mm 2 m/S 700 mmHg 95%
01:00 +18°C° 0 mm 2 m/S 699 mmHg 94%
02:00 +18°C° 0 mm 2 m/S 699 mmHg 94%
03:00 +18°C° 0 mm 2 m/S 699 mmHg 94%
04:00 +19°C° 0 mm 1 m/S 699 mmHg 92%
05:00 +20°C° 0 mm 1 m/S 699 mmHg 90%
06:00 +20°C° 0 mm 1 m/S 699 mmHg 88%
07:00 +22°C° 0 mm 1 m/S 699 mmHg 79%
08:00 +25°C° 0 mm 1 m/S 699 mmHg 70%
09:00 +27°C° 0 mm 1 m/S 699 mmHg 62%
10:00 +28°C° 0.1 mm 1 m/S 699 mmHg 57%
11:00 +30°C° 0.1 mm 1 m/S 699 mmHg 52%
12:00 +32°C° 0.1 mm 1 m/S 699 mmHg 47%
13:00 +32°C° 0.3 mm 1 m/S 699 mmHg 46%
14:00 +32°C° 0.3 mm 2 m/S 699 mmHg 46%
15:00 +33°C° 0.3 mm 3 m/S 699 mmHg 46%
16:00 +31°C° 0.3 mm 3 m/S 698 mmHg 51%
17:00 +29°C° 0.3 mm 3 m/S 698 mmHg 56%
18:00 +28°C° 0.3 mm 3 m/S 698 mmHg 61%
19:00 +26°C° 0.4 mm 2 m/S 698 mmHg 70%
20:00 +24°C° 0.4 mm 2 m/S 698 mmHg 79%
21:00 +21°C° 0.4 mm 1 m/S 698 mmHg 88%
22:00 +21°C° 0.3 mm 1 m/S 698 mmHg 89%
23:00 +20°C° 0.3 mm 1 m/S 697 mmHg 90%

17 Juli, Freitag

Zeit Temperatur Niederschläge Wind Luftdruck Luftfeuchtigkeit
00:00 +18°C° 0.3 mm 0 m/S 697 mmHg 91%
01:00 +20°C° 0.4 mm 1 m/S 697 mmHg 92%
02:00 +20°C° 0.4 mm 1 m/S 697 mmHg 92%
03:00 +20°C° 0.4 mm 1 m/S 697 mmHg 92%
04:00 +19°C° 0.2 mm 2 m/S 697 mmHg 92%
05:00 +19°C° 0.2 mm 2 m/S 697 mmHg 91%
06:00 +20°C° 0.2 mm 2 m/S 697 mmHg 91%
07:00 +21°C° 0.2 mm 3 m/S 697 mmHg 85%
08:00 +22°C° 0.2 mm 4 m/S 697 mmHg 80%
09:00 +23°C° 0.2 mm 5 m/S 697 mmHg 75%
10:00 +26°C° 0 mm 5 m/S 697 mmHg 69%
11:00 +27°C° 0 mm 6 m/S 697 mmHg 63%
12:00 +29°C° 0 mm 6 m/S 697 mmHg 57%
13:00 +29°C° 0 mm 6 m/S 697 mmHg 56%
14:00 +29°C° 0 mm 6 m/S 697 mmHg 55%
15:00 +30°C° 0 mm 5 m/S 697 mmHg 54%
16:00 +29°C° 0.1 mm 5 m/S 697 mmHg 56%
17:00 +29°C° 0.1 mm 4 m/S 697 mmHg 58%
18:00 +28°C° 0.1 mm 3 m/S 697 mmHg 61%
19:00 +26°C° 0.5 mm 3 m/S 698 mmHg 70%
20:00 +24°C° 0.5 mm 2 m/S 698 mmHg 79%
21:00 +21°C° 0.5 mm 2 m/S 698 mmHg 87%
22:00 +21°C° 0.2 mm 1 m/S 698 mmHg 89%
23:00 +21°C° 0.2 mm 1 m/S 697 mmHg 90%

18 Juli, Samstag

Zeit Temperatur Niederschläge Wind Luftdruck Luftfeuchtigkeit
00:00 +21°C° 0.2 mm 1 m/S 697 mmHg 91%
01:00 +20°C° 0.3 mm 1 m/S 697 mmHg 92%
02:00 +20°C° 0.3 mm 1 m/S 697 mmHg 92%
03:00 +20°C° 0.3 mm 1 m/S 697 mmHg 92%
04:00 +21°C° 0 mm 1 m/S 698 mmHg 91%
05:00 +21°C° 0 mm 1 m/S 698 mmHg 89%
06:00 +22°C° 0 mm 1 m/S 698 mmHg 88%
07:00 +24°C° 0 mm 2 m/S 698 mmHg 79%
08:00 +26°C° 0 mm 2 m/S 698 mmHg 69%
09:00 +28°C° 0 mm 3 m/S 699 mmHg 60%
10:00 +30°C° 0 mm 4 m/S 699 mmHg 55%
11:00 +32°C° 0 mm 4 m/S 699 mmHg 50%
12:00 +33°C° 0 mm 4 m/S 699 mmHg 45%
13:00 +34°C° 0.2 mm 4 m/S 699 mmHg 44%
14:00 +35°C° 0.2 mm 4 m/S 699 mmHg 42%
15:00 +35°C° 0.2 mm 4 m/S 699 mmHg 40%
16:00 +34°C° 0.1 mm 4 m/S 699 mmHg 43%
17:00 +33°C° 0.1 mm 4 m/S 699 mmHg 46%
18:00 +33°C° 0.1 mm 4 m/S 699 mmHg 49%
19:00 +29°C° 0.1 mm 3 m/S 699 mmHg 57%
20:00 +27°C° 0.1 mm 2 m/S 699 mmHg 65%
21:00 +24°C° 0.1 mm 2 m/S 699 mmHg 73%
22:00 +24°C° 0 mm 2 m/S 699 mmHg 74%
23:00 +23°C° 0 mm 2 m/S 699 mmHg 75%

19 Juli, Sonntag

Zeit Temperatur Niederschläge Wind Luftdruck Luftfeuchtigkeit
00:00 +23°C° 0 mm 2 m/S 699 mmHg 76%
01:00 +23°C° 0 mm 2 m/S 699 mmHg 76%
02:00 +21°C° 0 mm 2 m/S 699 mmHg 77%
03:00 +21°C° 0 mm 2 m/S 699 mmHg 77%
04:00 +23°C° 0 mm 2 m/S 699 mmHg 76%
05:00 +22°C° 0 mm 3 m/S 699 mmHg 75%
06:00 +22°C° 0 mm 3 m/S 700 mmHg 74%
07:00 +25°C° 0 mm 3 m/S 700 mmHg 66%
08:00 +27°C° 0 mm 4 m/S 700 mmHg 59%
09:00 +30°C° 0 mm 5 m/S 700 mmHg 52%
10:00 +32°C° 0 mm 5 m/S 700 mmHg 49%
11:00 +33°C° 0 mm 5 m/S 700 mmHg 45%
12:00 +35°C° 0 mm 6 m/S 699 mmHg 42%
13:00 +35°C° 0.1 mm 5 m/S 699 mmHg 42%
14:00 +36°C° 0.1 mm 5 m/S 699 mmHg 41%
15:00 +36°C° 0.1 mm 5 m/S 699 mmHg 41%
16:00 +35°C° 0 mm 5 m/S 699 mmHg 43%
17:00 +35°C° 0 mm 4 m/S 699 mmHg 45%
18:00 +34°C° 0 mm 4 m/S 699 mmHg 47%
19:00 +30°C° 0.1 mm 3 m/S 699 mmHg 55%
20:00 +28°C° 0.1 mm 2 m/S 699 mmHg 63%
21:00 +25°C° 0.1 mm 2 m/S 699 mmHg 71%
22:00 +25°C° 0 mm 2 m/S 699 mmHg 72%
23:00 +24°C° 0 mm 2 m/S 698 mmHg 73%
Mehr zeigen